Time,TemperatureF,DewpointF,PressureIn,WindDirection,WindDirectionDegrees,WindSpeedMPH,WindSpeedGustMPH,Humidity,HourlyPrecipIn,Conditions,Clouds,dailyrainin,SoftwareType,DateUTC
2013-01-13 00:03:00,2.7,0.0,30.15,NNW,331,1.0,3.0,87,0.00,,,0.00,weatherlink.com 1.10,2013-01-13 06:03:00,
2013-01-13 00:18:00,2.5,-1.0,30.15,NW,323,0.0,3.0,87,0.00,,,0.00,weatherlink.com 1.10,2013-01-13 06:18:00,
2013-01-13 00:33:00,2.2,-1.0,30.15,SW,227,1.0,2.0,87,0.00,,,0.00,weatherlink.com 1.10,2013-01-13 06:33:00,
2013-01-13 00:48:00,1.9,-1.0,30.14,NW,313,0.0,3.0,87,0.00,,,0.00,weatherlink.com 1.10,2013-01-13 06:48:00,
2013-01-13 01:03:00,1.7,-1.0,30.14,NW,319,1.0,1.0,87,0.00,,,0.00,weatherlink.com 1.10,2013-01-13 07:03:00,
2013-01-13 01:18:00,1.6,-1.0,30.14,WSW,242,2.0,3.0,87,0.00,,,0.00,weatherlink.com 1.10,2013-01-13 07:18:00,
2013-01-13 01:33:00,1.2,-2.0,30.15,North,360,0.0,3.0,86,0.00,,,0.00,weatherlink.com 1.10,2013-01-13 07:33:00,
2013-01-13 01:49:00,0.8,-2.0,30.15,NW,313,1.0,2.0,87,0.00,,,0.00,weatherlink.com 1.10,2013-01-13 07:49:00,
2013-01-13 02:04:00,0.5,-3.0,30.16,West,277,0.0,1.0,87,0.00,,,0.00,weatherlink.com 1.10,2013-01-13 08:04:00,
2013-01-13 02:19:00,0.2,-3.0,30.16,North,355,0.0,3.0,87,0.00,,,0.00,weatherlink.com 1.10,2013-01-13 08:19:00,
2013-01-13 02:34:00,0.1,-3.0,30.17,West,279,0.0,1.0,88,0.00,,,0.00,weatherlink.com 1.10,2013-01-13 08:34:00,
2013-01-13 02:49:00,-0.1,-3.0,30.17,West,279,0.0,0.0,87,0.00,,,0.00,weatherlink.com 1.10,2013-01-13 08:49:00,
2013-01-13 03:04:00,-0.6,-4.0,30.17,SW,223,0.0,1.0,87,0.00,,,0.00,weatherlink.com 1.10,2013-01-13 09:04:00,
2013-01-13 03:19:00,-0.8,-4.0,30.17,WSW,242,0.0,2.0,88,0.00,,,0.00,weatherlink.com 1.10,2013-01-13 09:19:00,
2013-01-13 03:34:00,-0.9,-4.0,30.16,NW,319,0.0,2.0,88,0.00,,,0.00,weatherlink.com 1.10,2013-01-13 09:34:00,
2013-01-13 03:49:00,-0.8,-4.0,30.16,West,275,0.0,2.0,88,0.00,,,0.00,weatherlink.com 1.10,2013-01-13 09:49:00,
2013-01-13 04:05:00,-0.7,-3.0,30.16,West,275,0.0,1.0,88,0.00,,,0.00,weatherlink.com 1.10,2013-01-13 10:05:00,
2013-01-13 04:19:00,-0.9,-4.0,30.17,West,275,1.0,1.0,87,0.00,,,0.00,weatherlink.com 1.10,2013-01-13 10:19:00,
2013-01-13 04:34:00,-0.8,-4.0,30.17,West,275,0.0,1.0,88,0.00,,,0.00,weatherlink.com 1.10,2013-01-13 10:34:00,
2013-01-13 04:49:00,-0.7,-3.0,30.17,West,275,0.0,1.0,88,0.00,,,0.00,weatherlink.com 1.10,2013-01-13 10:49:00,
2013-01-13 05:04:00,-0.4,-3.0,30.16,West,275,0.0,1.0,88,0.00,,,0.00,weatherlink.com 1.10,2013-01-13 11:04:00,
2013-01-13 05:19:00,-0.5,-3.0,30.17,NNW,331,0.0,2.0,88,0.00,,,0.00,weatherlink.com 1.10,2013-01-13 11:19:00,
2013-01-13 05:34:00,-0.7,-4.0,30.17,NE,40,0.0,3.0,87,0.00,,,0.00,weatherlink.com 1.10,2013-01-13 11:34:00,
2013-01-13 05:49:00,-0.7,-4.0,30.17,North,355,0.0,1.0,87,0.00,,,0.00,weatherlink.com 1.10,2013-01-13 11:49:00,
2013-01-13 06:04:00,-0.8,-4.0,30.18,SSW,202,1.0,2.0,87,0.00,,,0.00,weatherlink.com 1.10,2013-01-13 12:04:00,
2013-01-13 06:20:00,-0.8,-4.0,30.18,West,269,0.0,2.0,87,0.00,,,0.00,weatherlink.com 1.10,2013-01-13 12:20:00,
2013-01-13 06:38:00,-0.9,-4.0,30.20,West,273,0.0,1.0,87,0.00,,,0.00,weatherlink.com 1.10,2013-01-13 12:38:00,
2013-01-13 06:49:00,-1.0,-4.0,30.20,NW,313,0.0,2.0,87,0.00,,,0.00,weatherlink.com 1.10,2013-01-13 12:49:00,
2013-01-13 07:05:00,-1.1,-4.0,30.22,NNW,328,0.0,3.0,87,0.00,,,0.00,weatherlink.com 1.10,2013-01-13 13:05:00,
2013-01-13 07:20:00,-1.2,-4.0,30.23,WNW,297,0.0,3.0,87,0.00,,,0.00,weatherlink.com 1.10,2013-01-13 13:20:00,
2013-01-13 07:35:00,-1.3,-4.0,30.24,WNW,297,0.0,1.0,87,0.00,,,0.00,weatherlink.com 1.10,2013-01-13 13:35:00,
2013-01-13 07:50:00,-1.4,-4.0,30.24,SW,215,0.0,4.0,87,0.00,,,0.00,weatherlink.com 1.10,2013-01-13 13:50:00,
2013-01-13 08:05:00,-1.3,-4.0,30.25,SW,218,0.0,1.0,87,0.00,,,0.00,weatherlink.com 1.10,2013-01-13 14:05:00,
2013-01-13 08:20:00,-1.3,-4.0,30.26,SW,218,0.0,1.0,87,0.00,,,0.00,weatherlink.com 1.10,2013-01-13 14:20:00,
2013-01-13 08:35:00,-1.1,-4.0,30.26,SW,219,0.0,1.0,87,0.00,,,0.00,weatherlink.com 1.10,2013-01-13 14:35:00,
2013-01-13 08:50:00,-1.0,-4.0,30.27,SW,221,0.0,2.0,87,0.00,,,0.00,weatherlink.com 1.10,2013-01-13 14:50:00,
2013-01-13 09:05:00,-0.9,-4.0,30.26,NW,320,1.0,3.0,87,0.00,,,0.00,weatherlink.com 1.10,2013-01-13 15:05:00,
2013-01-13 09:20:00,-0.5,-3.0,30.25,NW,317,1.0,2.0,87,0.00,,,0.00,weatherlink.com 1.10,2013-01-13 15:20:00,
2013-01-13 09:35:00,0.1,-3.0,30.25,NNE,20,0.0,4.0,86,0.00,,,0.00,weatherlink.com 1.10,2013-01-13 15:35:00,
2013-01-13 09:50:00,0.9,-2.0,30.26,WNW,301,0.0,2.0,86,0.00,,,0.00,weatherlink.com 1.10,2013-01-13 15:50:00,
2013-01-13 10:05:00,1.4,-2.0,30.26,SSW,211,2.0,4.0,85,0.00,,,0.00,weatherlink.com 1.10,2013-01-13 16:05:00,
2013-01-13 10:23:00,1.8,-2.0,30.26,SW,223,0.0,2.0,84,0.00,,,0.00,weatherlink.com 1.10,2013-01-13 16:23:00,
2013-01-13 10:36:00,2.3,-1.0,30.26,WSW,254,1.0,3.0,84,0.00,,,0.00,weatherlink.com 1.10,2013-01-13 16:36:00,
2013-01-13 10:51:00,2.5,-2.0,30.26,SSW,197,1.0,2.0,83,0.00,,,0.00,weatherlink.com 1.10,2013-01-13 16:51:00,
2013-01-13 11:08:00,2.7,-1.0,30.25,WNW,282,2.0,3.0,83,0.00,,,0.00,weatherlink.com 1.10,2013-01-13 17:08:00,
2013-01-13 11:21:00,3.0,-1.0,30.23,West,262,0.0,2.0,82,0.00,,,0.00,weatherlink.com 1.10,2013-01-13 17:21:00,
2013-01-13 11:36:00,3.7,-1.0,30.23,West,274,0.0,2.0,82,0.00,,,0.00,weatherlink.com 1.10,2013-01-13 17:36:00,
2013-01-13 11:51:00,4.2,0.0,30.23,SW,226,0.0,3.0,81,0.00,,,0.00,weatherlink.com 1.10,2013-01-13 17:51:00,
2013-01-13 12:06:00,4.0,0.0,30.22,SW,214,0.0,2.0,82,0.00,,,0.00,weatherlink.com 1.10,2013-01-13 18:06:00,
2013-01-13 12:21:00,4.6,1.0,30.21,West,269,1.0,3.0,83,0.00,,,0.00,weatherlink.com 1.10,2013-01-13 18:21:00,
2013-01-13 12:36:00,5.4,1.0,30.20,WNW,286,0.0,2.0,82,0.00,,,0.00,weatherlink.com 1.10,2013-01-13 18:36:00,
2013-01-13 12:51:00,5.6,1.0,30.19,NNW,336,1.0,2.0,81,0.00,,,0.00,weatherlink.com 1.10,2013-01-13 18:51:00,
2013-01-13 13:06:00,6.2,2.0,30.18,NW,311,0.0,3.0,81,0.00,,,0.00,weatherlink.com 1.10,2013-01-13 19:06:00,
2013-01-13 13:21:00,6.8,2.0,30.18,North,355,0.0,2.0,79,0.00,,,0.00,weatherlink.com 1.10,2013-01-13 19:21:00,
2013-01-13 13:36:00,6.3,1.0,30.18,NNW,335,0.0,3.0,80,0.00,,,0.00,weatherlink.com 1.10,2013-01-13 19:36:00,
2013-01-13 13:51:00,6.5,2.0,30.18,SSW,199,1.0,3.0,80,0.00,,,0.00,weatherlink.com 1.10,2013-01-13 19:51:00,
2013-01-13 14:07:00,6.3,1.0,30.19,WSW,247,1.0,4.0,80,0.00,,,0.00,weatherlink.com 1.10,2013-01-13 20:07:00,
2013-01-13 14:22:00,6.6,2.0,30.19,WSW,249,0.0,2.0,81,0.00,,,0.00,weatherlink.com 1.10,2013-01-13 20:22:00,
2013-01-13 14:37:00,8.1,3.0,30.20,SW,228,1.0,4.0,81,0.00,,,0.00,weatherlink.com 1.10,2013-01-13 20:37:00,
2013-01-13 14:52:00,8.5,4.0,30.20,West,277,1.0,3.0,80,0.00,,,0.00,weatherlink.com 1.10,2013-01-13 20:52:00,
2013-01-13 15:07:00,8.0,3.0,30.20,NE,45,0.0,3.0,79,0.00,,,0.00,weatherlink.com 1.10,2013-01-13 21:07:00,
2013-01-13 15:22:00,7.8,3.0,30.21,NW,325,0.0,2.0,80,0.00,,,0.00,weatherlink.com 1.10,2013-01-13 21:22:00,
2013-01-13 15:52:00,7.4,3.0,30.22,NE,39,0.0,3.0,81,0.00,,,0.00,weatherlink.com 1.10,2013-01-13 21:52:00,
2013-01-13 16:07:00,7.2,3.0,30.22,NE,39,0.0,1.0,81,0.00,,,0.00,weatherlink.com 1.10,2013-01-13 22:07:00,
2013-01-13 16:22:00,6.7,2.0,30.22,WNW,298,0.0,2.0,82,0.00,,,0.00,weatherlink.com 1.10,2013-01-13 22:22:00,
2013-01-13 16:37:00,6.3,3.0,30.22,North,9,0.0,2.0,84,0.00,,,0.00,weatherlink.com 1.10,2013-01-13 22:37:00,
2013-01-13 16:52:00,5.9,2.0,30.22,North,9,0.0,1.0,84,0.00,,,0.00,weatherlink.com 1.10,2013-01-13 22:52:00,
2013-01-13 17:07:00,5.4,2.0,30.22,North,9,0.0,0.0,85,0.00,,,0.00,weatherlink.com 1.10,2013-01-13 23:07:00,
2013-01-13 17:23:00,5.0,2.0,30.23,North,9,0.0,1.0,86,0.00,,,0.00,weatherlink.com 1.10,2013-01-13 23:23:00,
2013-01-13 17:38:00,4.6,1.0,30.23,North,9,0.0,0.0,86,0.00,,,0.00,weatherlink.com 1.10,2013-01-13 23:38:00,
2013-01-13 17:53:00,4.3,1.0,30.23,North,9,0.0,1.0,86,0.00,,,0.00,weatherlink.com 1.10,2013-01-13 23:53:00,
2013-01-13 18:08:00,4.2,1.0,30.23,North,9,1.0,1.0,87,0.00,,,0.00,weatherlink.com 1.10,2013-01-14 00:08:00,
2013-01-13 18:23:00,4.4,1.0,30.23,North,9,0.0,1.0,87,0.00,,,0.00,weatherlink.com 1.10,2013-01-14 00:23:00,
2013-01-13 18:38:00,4.5,2.0,30.23,North,9,0.0,1.0,87,0.00,,,0.00,weatherlink.com 1.10,2013-01-14 00:38:00,
2013-01-13 18:53:00,4.4,1.0,30.24,North,9,0.0,1.0,87,0.00,,,0.00,weatherlink.com 1.10,2013-01-14 00:53:00,
2013-01-13 19:08:00,4.3,1.0,30.24,North,9,0.0,0.0,87,0.00,,,0.00,weatherlink.com 1.10,2013-01-14 01:08:00,
2013-01-13 19:23:00,4.3,1.0,30.24,North,9,0.0,1.0,87,0.00,,,0.00,weatherlink.com 1.10,2013-01-14 01:23:00,
2013-01-13 19:38:00,4.3,2.0,30.24,North,9,0.0,1.0,88,0.00,,,0.00,weatherlink.com 1.10,2013-01-14 01:38:00,
2013-01-13 19:53:00,4.2,1.0,30.24,North,9,0.0,1.0,88,0.00,,,0.00,weatherlink.com 1.10,2013-01-14 01:53:00,
2013-01-13 20:08:00,4.2,1.0,30.24,North,9,0.0,1.0,88,0.00,,,0.00,weatherlink.com 1.10,2013-01-14 02:08:00,
2013-01-13 20:23:00,4.3,2.0,30.25,North,9,0.0,2.0,88,0.00,,,0.00,weatherlink.com 1.10,2013-01-14 02:23:00,
2013-01-13 20:38:00,4.6,2.0,30.25,WSW,238,0.0,4.0,87,0.00,,,0.00,weatherlink.com 1.10,2013-01-14 02:38:00,
2013-01-13 20:54:00,4.7,1.0,30.25,SW,220,1.0,2.0,86,0.00,,,0.00,weatherlink.com 1.10,2013-01-14 02:54:00,
2013-01-13 21:09:00,4.7,1.0,30.26,SW,221,0.0,1.0,86,0.00,,,0.00,weatherlink.com 1.10,2013-01-14 03:09:00,
2013-01-13 21:24:00,4.7,1.0,30.26,SW,214,0.0,2.0,86,0.00,,,0.00,weatherlink.com 1.10,2013-01-14 03:24:00,
2013-01-13 21:39:00,4.7,1.0,30.26,NNW,327,1.0,2.0,86,0.00,,,0.00,weatherlink.com 1.10,2013-01-14 03:39:00,
2013-01-13 21:54:00,4.6,1.0,30.27,SW,234,0.0,4.0,85,0.00,,,0.00,weatherlink.com 1.10,2013-01-14 03:54:00,
2013-01-13 22:09:00,4.6,1.0,30.27,NW,313,0.0,3.0,85,0.00,,,0.00,weatherlink.com 1.10,2013-01-14 04:09:00,
2013-01-13 22:24:00,4.6,1.0,30.27,WSW,252,0.0,4.0,86,0.00,,,0.00,weatherlink.com 1.10,2013-01-14 04:24:00,
2013-01-13 22:39:00,4.7,1.0,30.27,SW,229,0.0,3.0,86,0.00,,,0.00,weatherlink.com 1.10,2013-01-14 04:39:00,
2013-01-13 22:54:00,4.6,1.0,30.27,SW,221,0.0,2.0,86,0.00,,,0.00,weatherlink.com 1.10,2013-01-14 04:54:00,
2013-01-13 23:09:00,4.6,2.0,30.28,SW,230,0.0,2.0,87,0.00,,,0.00,weatherlink.com 1.10,2013-01-14 05:09:00,
2013-01-13 23:24:00,4.7,2.0,30.29,SW,227,1.0,3.0,87,0.00,,,0.00,weatherlink.com 1.10,2013-01-14 05:24:00,
2013-01-13 23:39:00,4.5,1.0,30.29,SW,229,0.0,3.0,86,0.00,,,0.00,weatherlink.com 1.10,2013-01-14 05:39:00,
2013-01-13 23:54:00,4.4,1.0,30.29,SW,220,0.0,3.0,86,0.00,,,0.00,weatherlink.com 1.10,2013-01-14 05:54:00,